NOAA 16 DEB

Satellite information

Favourite Embed

Satellite Type and Status

DEBRISIN ORBIT

Key statistics

Satellite NOAA 16 DEB at a glance.

Uptime

8994

Days in orbit

Revolutions

≈ 14.4

Per day

Orbit

SSO

Sun Synchronous Orbit

Inclination

98.9

Latest

Satellite identification and parameters

Extended collection of information and parameters for NOAA 16 DEB.

Object identification

Identified? True

Debris? True

Object name: NOAA 16 DEB

International designator: 2000-055CR

Object number (NORAD): 41158

Object ID (CCSDS): 41158

Country: UNITED STATES OF AMERICA (US)

Current information (Y/N): Y

RCS size: SMALL

Orbital parameters

Period: 100.254 minutes

Inclination: 98.9485 deg

SMA: 7148.697 km

Apoapsis: 777.547 km

Periapsis: 763.577 km

RAAN: 265.6784 deg

Eccentricy: 0.0009771

Argument of periapsis: 307.2843 deg

Mean anomaly: 52.745 deg

Mean motion: 14.36357161 rev/day

Mean motion (dot): 0.00007996 rev/day2

B* drag term: 0.0027442 1/REarth

Two-line elements (TLE)

Creation date: May 6, 2025, 3:54 a.m.

Reference frame: TEME

Reference center: EARTH

Epoch: May 5, 2025, 7:50 p.m. UTC

TLE line 0: 0 NOAA 16 DEB

TLE line 1: 1 41158U 00055CR 25125.82649481 .00007996 00000-0 27442-2 0 9998

TLE line 2: 2 41158 98.9485 265.6784 0009771 307.2843 52.7450 14.36357161488384

Live tracking on map

Real-time ground track for satellite NOAA 16 DEB.

In-orbit conjunctions

A list of the most updated potential collisions computed for object NOAA 16 DEB.

Target Orbit TCA Probability of collision Miss distance Type
SL-8 R/B LEO 2025-03-31 08:06:23 0.0001107698 659.0 (m) ROCKET BODY
CZ-6A DEB LEO 2025-02-28 10:52:28 0.0002606666 510.0 (m) DEBRIS
CZ-6A DEB LEO 2025-01-09 14:39:13 0.0001083602 543.0 (m) DEBRIS
CZ-6A DEB LEO 2024-12-27 01:18:39 0.0002383712 663.0 (m) DEBRIS
WEOS SSO 2024-11-25 00:58:11 0.0003712804 814.0 (m) PAYLOAD

Associated space launch

The NOAA K, L and M POES satellites begin the fifth generation of improved environmental monitoring in support of NOAA missions. The instrument payload has significant improvements and additions/deletions. The instrument changes have effected the spacecraft subsystems and data formats.

NOAA 16 DEB was lifted into orbit during the mission ‘Titan II SLV | NOAA 16’, on board a Titan II SLV space rocket.

The launch took place on Sept. 21, 2000, 10:22 a.m. from Space Launch Complex 4W.

For more information about the launch, click the button.

Launch to space Titan II SLV | NOAA 16
Titan II SLV | NOAA 16

Agency: N/A

Status: Launch Successful

Launch date: Sept. 21, 2000, 10:22 a.m. UTC

Rocket: Titan II SLV

Launch pad: Space Launch Complex 4W

Location: Vandenberg SFB, CA, USA

...

Latest news about this satellite

There are no fresh news available about this satellite. Check back as we update our databases every day.


Newsletter sign-up

Weekly statistics, charts and insights to help you stay on top of the space industry.